{"data":{"norad_id":69707,"intl_designator":"2026-147D","name":"STARLINK-37975","alt_names":[],"object_type":"PAYLOAD","status":"ACTIVE","operator":null,"country":"US","launch_date":"2026-06-28","launch_site_code":"AFWTR","launch_vehicle":null,"mission":null,"orbit_class":"UNKNOWN","rcs_meters":null,"size_class":null,"mass_kg":null,"dimensions":null,"purposes":["comms"],"wikipedia_slug":null,"has_3d_model":false,"image_url":null,"decayed_at":null,"tle_current":{"epoch":"2026-09-19T08:25:22.810944Z","epoch_age_seconds":120952,"freshness":"FRESH","line1":"1 69707U 26147D   26262.35095846  .00011622  00000+0  36168-3 0  9995","line2":"2 69707  97.2821 298.6672 0002210 102.3358 257.8132 15.33451859 14059","mean_motion":15.33451859,"eccentricity":0.000221,"inclination_deg":97.2821,"raan_deg":298.6672,"arg_perigee_deg":102.3358,"mean_anomaly_deg":257.8132,"bstar":0.00036168,"rev_number":1405,"period_min":93.905784622352,"perigee_km":464.01031818741,"apogee_km":467.03521580442,"semimajor_km":6843.6597669959,"source":"CELESTRAK","updated_at":"2026-09-20T09:00:44.257854Z"}}}